Time,TemperatureF,DewpointF,PressureIn,WindDirection,WindDirectionDegrees,WindSpeedMPH,WindSpeedGustMPH,Humidity,HourlyPrecipIn,Conditions,Clouds,dailyrainin,SoftwareType,DateUTC
2013-09-09 00:05:00,68.4,64.7,29.97,ESE,103,0.0,0.0,88,0.00,,,0.00,Wunderground v.1.15,2013-09-09 05:05:00,
2013-09-09 00:15:00,68.1,64.4,29.97,SE,144,0.0,0.0,88,0.00,,,0.00,Wunderground v.1.15,2013-09-09 05:15:00,
2013-09-09 00:25:00,68.0,64.3,29.97,SE,142,0.0,0.0,88,0.00,,,0.00,Wunderground v.1.15,2013-09-09 05:25:00,
2013-09-09 00:30:00,67.9,64.2,29.97,SE,142,0.0,0.0,88,0.00,,,0.00,Wunderground v.1.15,2013-09-09 05:30:00,
2013-09-09 00:35:00,67.8,64.4,29.97,SE,142,0.0,0.0,89,0.00,,,0.00,Wunderground v.1.15,2013-09-09 05:35:00,
2013-09-09 00:40:00,67.6,64.2,29.97,SE,142,0.0,0.0,89,0.00,,,0.00,Wunderground v.1.15,2013-09-09 05:40:00,
2013-09-09 00:45:00,67.5,64.1,29.97,SE,142,0.0,0.0,89,0.00,,,0.00,Wunderground v.1.15,2013-09-09 05:45:00,
2013-09-09 00:50:00,67.4,64.0,29.97,SE,142,0.0,0.0,89,0.00,,,0.00,Wunderground v.1.15,2013-09-09 05:50:00,
2013-09-09 00:55:00,67.3,63.9,29.97,SE,142,0.0,0.0,89,0.00,,,0.00,Wunderground v.1.15,2013-09-09 05:55:00,
2013-09-09 01:05:00,67.1,63.7,29.97,SE,140,0.0,0.0,89,0.00,,,0.00,Wunderground v.1.15,2013-09-09 06:05:00,
2013-09-09 01:15:00,66.9,63.9,29.96,SE,140,0.0,0.0,90,0.00,,,0.00,Wunderground v.1.15,2013-09-09 06:15:00,
2013-09-09 01:25:00,66.7,63.7,29.96,SE,140,0.0,0.0,90,0.00,,,0.00,Wunderground v.1.15,2013-09-09 06:25:00,
2013-09-09 01:35:00,66.6,63.6,29.96,SE,140,0.0,0.0,90,0.00,,,0.00,Wunderground v.1.15,2013-09-09 06:35:00,
2013-09-09 01:40:00,66.5,63.5,29.96,SE,140,0.0,0.0,90,0.00,,,0.00,Wunderground v.1.15,2013-09-09 06:40:00,
2013-09-09 01:45:00,66.4,63.7,29.96,SE,140,0.0,0.0,91,0.00,,,0.00,Wunderground v.1.15,2013-09-09 06:45:00,
2013-09-09 01:50:00,66.4,63.7,29.95,SE,140,0.0,0.0,91,0.00,,,0.00,Wunderground v.1.15,2013-09-09 06:50:00,
2013-09-09 01:55:00,66.4,63.7,29.95,SE,140,0.0,0.0,91,0.00,,,0.00,Wunderground v.1.15,2013-09-09 06:55:00,
2013-09-09 02:00:00,66.4,63.7,29.95,SE,140,0.0,0.0,91,0.00,,,0.00,Wunderground v.1.15,2013-09-09 07:00:00,
2013-09-09 02:05:00,66.3,63.6,29.95,SE,140,0.0,0.0,91,0.00,,,0.00,Wunderground v.1.15,2013-09-09 07:05:00,
2013-09-09 02:15:00,66.2,63.5,29.95,SE,140,0.0,0.0,91,0.00,,,0.00,Wunderground v.1.15,2013-09-09 07:15:00,
2013-09-09 02:20:00,66.2,63.5,29.95,SE,140,0.0,0.0,91,0.00,,,0.00,Wunderground v.1.15,2013-09-09 07:20:00,
2013-09-09 02:30:00,66.0,63.3,29.95,SE,140,0.0,0.0,91,0.00,,,0.00,Wunderground v.1.15,2013-09-09 07:30:00,
2013-09-09 02:35:00,66.0,63.3,29.95,SE,140,0.0,0.0,91,0.00,,,0.00,Wunderground v.1.15,2013-09-09 07:35:00,
2013-09-09 02:40:00,65.9,63.2,29.95,SE,140,0.0,0.0,91,0.00,,,0.00,Wunderground v.1.15,2013-09-09 07:40:00,
2013-09-09 02:45:00,65.8,63.4,29.94,SE,140,0.0,0.0,92,0.00,,,0.00,Wunderground v.1.15,2013-09-09 07:45:00,
2013-09-09 02:50:00,65.7,63.3,29.94,SE,140,0.0,0.0,92,0.00,,,0.00,Wunderground v.1.15,2013-09-09 07:50:00,
2013-09-09 03:00:00,65.6,63.2,29.94,SE,140,0.0,0.0,92,0.00,,,0.00,Wunderground v.1.15,2013-09-09 08:00:00,
2013-09-09 03:05:00,65.6,63.2,29.94,SE,140,0.0,0.0,92,0.00,,,0.00,Wunderground v.1.15,2013-09-09 08:05:00,
2013-09-09 03:15:00,65.7,63.3,29.94,SE,140,0.0,0.0,92,0.00,,,0.00,Wunderground v.1.15,2013-09-09 08:15:00,
2013-09-09 03:20:00,65.7,63.3,29.94,SE,140,0.0,0.0,92,0.00,,,0.00,Wunderground v.1.15,2013-09-09 08:20:00,
2013-09-09 03:25:00,65.7,63.3,29.94,SE,140,0.0,0.0,92,0.00,,,0.00,Wunderground v.1.15,2013-09-09 08:25:00,
2013-09-09 03:30:00,65.7,63.3,29.94,SE,140,0.0,0.0,92,0.00,,,0.00,Wunderground v.1.15,2013-09-09 08:30:00,
2013-09-09 03:35:00,65.7,63.3,29.94,SE,140,0.0,0.0,92,0.00,,,0.00,Wunderground v.1.15,2013-09-09 08:35:00,
2013-09-09 03:45:00,65.7,63.3,29.94,SE,140,0.0,0.0,92,0.00,,,0.00,Wunderground v.1.15,2013-09-09 08:45:00,
2013-09-09 03:50:00,65.8,63.4,29.94,SE,140,0.0,0.0,92,0.00,,,0.00,Wunderground v.1.15,2013-09-09 08:50:00,
2013-09-09 03:55:00,65.9,63.5,29.94,SE,140,0.0,0.0,92,0.00,,,0.00,Wunderground v.1.15,2013-09-09 08:55:00,
2013-09-09 04:00:00,65.8,63.4,29.94,SE,140,0.0,0.0,92,0.00,,,0.00,Wunderground v.1.15,2013-09-09 09:00:00,
2013-09-09 04:05:00,65.9,63.8,29.93,SE,140,0.0,0.0,93,0.00,,,0.00,Wunderground v.1.15,2013-09-09 09:05:00,
2013-09-09 04:15:00,65.9,63.8,29.93,SE,140,0.0,0.0,93,0.00,,,0.00,Wunderground v.1.15,2013-09-09 09:15:00,
2013-09-09 04:20:00,65.9,63.8,29.93,SE,140,0.0,0.0,93,0.00,,,0.00,Wunderground v.1.15,2013-09-09 09:20:00,
2013-09-09 04:30:00,66.0,63.9,29.93,SE,140,0.0,0.0,93,0.00,,,0.00,Wunderground v.1.15,2013-09-09 09:30:00,
2013-09-09 04:40:00,66.1,64.0,29.93,SE,140,0.0,0.0,93,0.00,,,0.00,Wunderground v.1.15,2013-09-09 09:40:00,
2013-09-09 04:45:00,66.1,64.0,29.92,SE,140,0.0,0.0,93,0.00,,,0.00,Wunderground v.1.15,2013-09-09 09:45:00,
2013-09-09 04:50:00,66.1,64.0,29.92,SE,140,0.0,0.0,93,0.00,,,0.00,Wunderground v.1.15,2013-09-09 09:50:00,
2013-09-09 04:55:00,66.2,64.1,29.92,SE,140,0.0,0.0,93,0.00,,,0.00,Wunderground v.1.15,2013-09-09 09:55:00,
2013-09-09 05:00:00,66.2,64.1,29.92,SE,142,0.0,0.0,93,0.00,,,0.00,Wunderground v.1.15,2013-09-09 10:00:00,
2013-09-09 05:05:00,66.2,64.1,29.92,SE,141,0.0,0.0,93,0.00,,,0.00,Wunderground v.1.15,2013-09-09 10:05:00,
2013-09-09 05:15:00,66.2,64.1,29.92,SSE,163,0.0,0.0,93,0.00,,,0.00,Wunderground v.1.15,2013-09-09 10:15:00,
2013-09-09 05:20:00,66.3,64.2,29.92,SSE,163,0.0,0.0,93,0.00,,,0.00,Wunderground v.1.15,2013-09-09 10:20:00,
2013-09-09 05:25:00,66.2,64.1,29.92,SSE,163,0.0,0.0,93,0.00,,,0.00,Wunderground v.1.15,2013-09-09 10:25:00,
2013-09-09 05:30:00,66.3,64.2,29.92,SSE,163,0.0,0.0,93,0.00,,,0.00,Wunderground v.1.15,2013-09-09 10:30:00,
2013-09-09 05:35:00,66.3,64.2,29.92,SSE,163,0.0,0.0,93,0.00,,,0.00,Wunderground v.1.15,2013-09-09 10:35:00,
2013-09-09 05:45:00,66.3,64.2,29.91,SSE,163,0.0,0.0,93,0.00,,,0.00,Wunderground v.1.15,2013-09-09 10:45:00,
2013-09-09 05:50:00,66.3,64.2,29.92,SSE,163,0.0,0.0,93,0.00,,,0.00,Wunderground v.1.15,2013-09-09 10:50:00,
2013-09-09 05:55:00,66.3,64.2,29.91,SSE,163,0.0,0.0,93,0.00,,,0.00,Wunderground v.1.15,2013-09-09 10:55:00,
2013-09-09 06:00:00,66.3,64.2,29.91,SSE,163,0.0,0.0,93,0.00,,,0.00,Wunderground v.1.15,2013-09-09 11:00:00,
2013-09-09 06:05:00,66.3,64.2,29.91,SSE,163,0.0,0.0,93,0.00,,,0.00,Wunderground v.1.15,2013-09-09 11:05:00,
2013-09-09 06:15:00,66.3,64.2,29.91,SSE,163,0.0,0.0,93,0.00,,,0.00,Wunderground v.1.15,2013-09-09 11:15:00,
2013-09-09 06:20:00,66.3,64.2,29.91,SSE,163,0.0,0.0,93,0.00,,,0.00,Wunderground v.1.15,2013-09-09 11:20:00,
2013-09-09 06:30:00,66.4,64.3,29.91,SSE,163,0.0,0.0,93,0.00,,,0.00,Wunderground v.1.15,2013-09-09 11:30:00,
2013-09-09 06:40:00,66.3,64.2,29.92,SSE,163,0.0,0.0,93,0.00,,,0.00,Wunderground v.1.15,2013-09-09 11:40:00,
2013-09-09 06:45:00,66.3,64.2,29.91,SSE,163,0.0,0.0,93,0.00,,,0.00,Wunderground v.1.15,2013-09-09 11:45:00,
2013-09-09 06:50:00,66.3,64.2,29.92,SSE,163,0.0,0.0,93,0.00,,,0.00,Wunderground v.1.15,2013-09-09 11:50:00,
2013-09-09 07:00:00,66.3,64.2,29.92,SSE,163,0.0,0.0,93,0.00,,,0.00,Wunderground v.1.15,2013-09-09 12:00:00,
2013-09-09 07:05:00,66.3,64.2,29.93,SSE,163,0.0,0.0,93,0.00,,,0.00,Wunderground v.1.15,2013-09-09 12:05:00,
2013-09-09 07:15:00,66.5,64.4,29.92,SSE,163,0.0,0.0,93,0.00,,,0.00,Wunderground v.1.15,2013-09-09 12:15:00,
2013-09-09 07:20:00,66.7,64.6,29.93,SSE,163,0.0,0.0,93,0.00,,,0.00,Wunderground v.1.15,2013-09-09 12:20:00,
2013-09-09 07:25:00,66.9,64.8,29.93,SSE,163,0.0,0.0,93,0.00,,,0.00,Wunderground v.1.15,2013-09-09 12:25:00,
2013-09-09 07:35:00,67.4,65.6,29.92,SSE,163,0.0,0.0,94,0.00,,,0.00,Wunderground v.1.15,2013-09-09 12:35:00,
2013-09-09 07:40:00,67.8,65.7,29.92,SSE,163,0.0,0.0,93,0.00,,,0.00,Wunderground v.1.15,2013-09-09 12:40:00,
2013-09-09 07:45:00,68.1,66.3,29.92,SSE,163,0.0,0.0,94,0.00,,,0.00,Wunderground v.1.15,2013-09-09 12:45:00,
2013-09-09 07:50:00,68.5,66.7,29.92,SSE,163,0.0,0.0,94,0.00,,,0.00,Wunderground v.1.15,2013-09-09 12:50:00,
2013-09-09 07:55:00,68.8,67.0,29.92,SSE,163,0.0,0.0,94,0.00,,,0.00,Wunderground v.1.15,2013-09-09 12:55:00,
2013-09-09 08:00:00,69.0,67.2,29.92,SSE,163,0.0,0.0,94,0.00,,,0.00,Wunderground v.1.15,2013-09-09 13:00:00,
2013-09-09 08:05:00,69.3,67.2,29.92,SSE,163,0.0,0.0,93,0.00,,,0.00,Wunderground v.1.15,2013-09-09 13:05:00,
2013-09-09 08:15:00,69.8,67.7,29.92,SSE,163,0.0,0.0,93,0.00,,,0.00,Wunderground v.1.15,2013-09-09 13:15:00,
2013-09-09 08:20:00,70.1,68.3,29.92,SE,143,0.0,0.0,94,0.00,,,0.00,Wunderground v.1.15,2013-09-09 13:20:00,
2013-09-09 08:30:00,70.6,68.5,29.92,SE,142,0.0,0.0,93,0.00,,,0.00,Wunderground v.1.15,2013-09-09 13:30:00,
2013-09-09 08:35:00,70.8,68.7,29.92,SE,142,0.0,0.0,93,0.00,,,0.00,Wunderground v.1.15,2013-09-09 13:35:00,
2013-09-09 08:45:00,71.3,69.2,29.92,SE,142,0.0,0.0,93,0.00,,,0.00,Wunderground v.1.15,2013-09-09 13:45:00,
2013-09-09 08:50:00,71.4,69.3,29.92,SSE,155,0.0,4.0,93,0.00,,,0.00,Wunderground v.1.15,2013-09-09 13:50:00,
2013-09-09 08:55:00,71.8,69.3,29.92,SSE,155,0.0,4.0,92,0.00,,,0.00,Wunderground v.1.15,2013-09-09 13:55:00,
2013-09-09 09:00:00,72.2,69.7,29.92,SSW,195,0.0,0.0,92,0.00,,,0.00,Wunderground v.1.15,2013-09-09 14:00:00,
2013-09-09 09:05:00,72.6,70.1,29.92,South,184,0.0,0.0,92,0.00,,,0.00,Wunderground v.1.15,2013-09-09 14:05:00,
2013-09-09 09:15:00,73.4,70.6,29.91,South,169,0.0,0.0,91,0.00,,,0.00,Wunderground v.1.15,2013-09-09 14:15:00,
2013-09-09 09:20:00,73.7,70.6,29.91,SE,132,0.0,0.0,90,0.00,,,0.00,Wunderground v.1.15,2013-09-09 14:20:00,
2013-09-09 09:25:00,74.2,71.1,29.91,SE,126,0.0,0.0,90,0.00,,,0.00,Wunderground v.1.15,2013-09-09 14:25:00,
2013-09-09 09:30:00,74.8,71.3,29.91,ESE,119,0.0,0.0,89,0.00,,,0.00,Wunderground v.1.15,2013-09-09 14:30:00,
2013-09-09 09:35:00,75.3,71.5,29.91,ESE,119,0.0,0.0,88,0.00,,,0.00,Wunderground v.1.15,2013-09-09 14:35:00,
2013-09-09 09:45:00,76.1,71.9,29.91,South,186,0.0,1.0,87,0.00,,,0.00,Wunderground v.1.15,2013-09-09 14:45:00,
2013-09-09 09:50:00,76.5,72.0,29.91,West,266,0.0,1.0,86,0.00,,,0.00,Wunderground v.1.15,2013-09-09 14:50:00,
2013-09-09 09:55:00,76.9,72.0,29.91,SE,137,0.0,1.0,85,0.00,,,0.00,Wunderground v.1.15,2013-09-09 14:55:00,
2013-09-09 10:00:00,77.3,72.4,29.91,ESE,122,0.0,0.0,85,0.00,,,0.00,Wunderground v.1.15,2013-09-09 15:00:00,
2013-09-09 10:05:00,77.8,72.9,29.91,SSW,213,0.0,0.0,85,0.00,,,0.00,Wunderground v.1.15,2013-09-09 15:05:00,
2013-09-09 10:15:00,78.7,73.1,29.91,WSW,247,0.0,0.0,83,0.00,,,0.00,Wunderground v.1.15,2013-09-09 15:15:00,
2013-09-09 10:20:00,78.7,72.7,29.91,WNW,294,0.0,0.0,82,0.00,,,0.00,Wunderground v.1.15,2013-09-09 15:20:00,
2013-09-09 10:25:00,79.2,73.2,29.90,WSW,258,1.0,4.0,82,0.00,,,0.00,Wunderground v.1.15,2013-09-09 15:25:00,
2013-09-09 10:30:00,79.5,73.2,29.90,WNW,296,1.0,1.0,81,0.00,,,0.00,Wunderground v.1.15,2013-09-09 15:30:00,
2013-09-09 10:35:00,80.0,73.6,29.90,West,261,0.0,1.0,81,0.00,,,0.00,Wunderground v.1.15,2013-09-09 15:35:00,
2013-09-09 10:40:00,80.5,73.8,29.90,WNW,294,0.0,0.0,80,0.00,,,0.00,Wunderground v.1.15,2013-09-09 15:40:00,
2013-09-09 10:45:00,81.0,73.9,29.90,WNW,284,1.0,1.0,79,0.00,,,0.00,Wunderground v.1.15,2013-09-09 15:45:00,
2013-09-09 10:55:00,82.0,74.1,29.90,West,277,0.0,0.0,77,0.00,,,0.00,Wunderground v.1.15,2013-09-09 15:55:00,
2013-09-09 11:00:00,82.5,74.2,29.90,West,278,0.0,0.0,76,0.00,,,0.00,Wunderground v.1.15,2013-09-09 16:00:00,
2013-09-09 11:05:00,83.0,74.6,29.90,West,278,0.0,0.0,76,0.00,,,0.00,Wunderground v.1.15,2013-09-09 16:05:00,
2013-09-09 11:15:00,84.2,75.0,29.90,West,278,0.0,0.0,74,0.00,,,0.00,Wunderground v.1.15,2013-09-09 16:15:00,
2013-09-09 11:20:00,84.9,74.9,29.90,West,275,0.0,0.0,72,0.00,,,0.00,Wunderground v.1.15,2013-09-09 16:20:00,
2013-09-09 11:25:00,85.6,75.5,29.90,West,275,0.0,0.0,72,0.00,,,0.00,Wunderground v.1.15,2013-09-09 16:25:00,
2013-09-09 11:30:00,86.3,75.8,29.90,West,275,0.0,0.0,71,0.00,,,0.00,Wunderground v.1.15,2013-09-09 16:30:00,
2013-09-09 11:35:00,87.0,76.0,29.90,West,275,0.0,3.0,70,0.00,,,0.00,Wunderground v.1.15,2013-09-09 16:35:00,
2013-09-09 11:40:00,87.4,75.5,29.90,West,262,0.0,0.0,68,0.00,,,0.00,Wunderground v.1.15,2013-09-09 16:40:00,
2013-09-09 11:50:00,88.4,75.6,29.90,NW,304,0.0,0.0,66,0.00,,,0.00,Wunderground v.1.15,2013-09-09 16:50:00,
2013-09-09 11:55:00,88.5,75.7,29.90,East,91,0.0,0.0,66,0.00,,,0.00,Wunderground v.1.15,2013-09-09 16:55:00,
2013-09-09 12:05:00,89.8,76.5,29.90,SSE,163,0.0,0.0,65,0.00,,,0.00,Wunderground v.1.15,2013-09-09 17:05:00,
2013-09-09 12:15:00,90.9,76.1,29.89,SSE,163,0.0,0.0,62,0.00,,,0.00,Wunderground v.1.15,2013-09-09 17:15:00,
2013-09-09 12:25:00,92.2,76.3,29.89,SSE,157,0.0,0.0,60,0.00,,,0.00,Wunderground v.1.15,2013-09-09 17:25:00,
2013-09-09 12:35:00,92.7,76.8,29.88,SE,138,0.0,0.0,60,0.00,,,0.00,Wunderground v.1.15,2013-09-09 17:35:00,
2013-09-09 12:45:00,93.9,76.9,29.88,SSE,155,0.0,0.0,58,0.00,,,0.00,Wunderground v.1.15,2013-09-09 17:45:00,
2013-09-09 12:50:00,93.8,76.8,29.88,SE,141,0.0,0.0,58,0.00,,,0.00,Wunderground v.1.15,2013-09-09 17:50:00,
2013-09-09 12:55:00,94.3,76.7,29.88,SE,138,0.0,0.0,57,0.00,,,0.00,Wunderground v.1.15,2013-09-09 17:55:00,
2013-09-09 13:00:00,94.4,76.3,29.88,SSW,207,0.0,0.0,56,0.00,,,0.00,Wunderground v.1.15,2013-09-09 18:00:00,
2013-09-09 13:05:00,95.0,75.7,29.88,West,269,0.0,0.0,54,0.00,,,0.00,Wunderground v.1.15,2013-09-09 18:05:00,
2013-09-09 13:15:00,95.5,76.8,29.87,North,355,0.0,0.0,55,0.00,,,0.00,Wunderground v.1.15,2013-09-09 18:15:00,
2013-09-09 13:20:00,96.2,77.4,29.87,NW,305,0.0,4.0,55,0.00,,,0.00,Wunderground v.1.15,2013-09-09 18:20:00,
2013-09-09 13:30:00,96.8,76.3,29.87,ESE,113,0.0,0.0,52,0.00,,,0.00,Wunderground v.1.15,2013-09-09 18:30:00,
2013-09-09 13:35:00,97.1,76.5,29.87,SSW,194,0.0,0.0,52,0.00,,,0.00,Wunderground v.1.15,2013-09-09 18:35:00,
2013-09-09 13:40:00,97.6,76.4,29.86,SSE,161,0.0,0.0,51,0.00,,,0.00,Wunderground v.1.15,2013-09-09 18:40:00,
2013-09-09 13:45:00,97.9,76.1,29.86,SSW,213,0.0,2.0,50,0.00,,,0.00,Wunderground v.1.15,2013-09-09 18:45:00,
2013-09-09 13:55:00,98.0,76.8,29.86,East,88,0.0,0.0,51,0.00,,,0.00,Wunderground v.1.15,2013-09-09 18:55:00,
2013-09-09 14:00:00,97.7,75.9,29.86,West,277,0.0,0.0,50,0.00,,,0.00,Wunderground v.1.15,2013-09-09 19:00:00,
2013-09-09 14:05:00,97.0,77.0,29.86,WSW,244,1.0,2.0,53,0.00,,,0.00,Wunderground v.1.15,2013-09-09 19:05:00,
2013-09-09 14:15:00,96.9,76.4,29.85,NW,316,1.0,1.0,52,0.00,,,0.00,Wunderground v.1.15,2013-09-09 19:15:00,
2013-09-09 14:20:00,97.0,77.0,29.86,WSW,247,1.0,1.0,53,0.00,,,0.00,Wunderground v.1.15,2013-09-09 19:20:00,
2013-09-09 14:25:00,97.8,77.2,29.86,ESE,111,1.0,1.0,52,0.00,,,0.00,Wunderground v.1.15,2013-09-09 19:25:00,
2013-09-09 14:30:00,98.2,76.4,29.86,SW,216,0.0,0.0,50,0.00,,,0.00,Wunderground v.1.15,2013-09-09 19:30:00,
2013-09-09 14:35:00,98.6,77.3,29.86,SW,224,0.0,0.0,51,0.00,,,0.00,Wunderground v.1.15,2013-09-09 19:35:00,
2013-09-09 14:45:00,98.4,76.6,29.85,SSE,155,0.0,0.0,50,0.00,,,0.00,Wunderground v.1.15,2013-09-09 19:45:00,
2013-09-09 14:50:00,98.1,76.3,29.84,SE,144,1.0,1.0,50,0.00,,,0.00,Wunderground v.1.15,2013-09-09 19:50:00,
2013-09-09 14:55:00,98.2,76.4,29.84,SE,138,1.0,1.0,50,0.00,,,0.00,Wunderground v.1.15,2013-09-09 19:55:00,
2013-09-09 15:00:00,98.0,76.2,29.84,ESE,105,1.0,1.0,50,0.00,,,0.00,Wunderground v.1.15,2013-09-09 20:00:00,
2013-09-09 15:05:00,98.3,76.5,29.84,ESE,115,1.0,1.0,50,0.00,,,0.00,Wunderground v.1.15,2013-09-09 20:05:00,
2013-09-09 15:15:00,98.6,76.1,29.84,SSW,192,0.0,3.0,49,0.00,,,0.00,Wunderground v.1.15,2013-09-09 20:15:00,
2013-09-09 15:20:00,98.5,76.0,29.84,SE,138,0.0,0.0,49,0.00,,,0.00,Wunderground v.1.15,2013-09-09 20:20:00,
2013-09-09 15:25:00,98.3,77.1,29.84,ESE,106,0.0,0.0,51,0.00,,,0.00,Wunderground v.1.15,2013-09-09 20:25:00,
2013-09-09 15:35:00,96.8,76.3,29.83,ESE,115,1.0,5.0,52,0.00,,,0.00,Wunderground v.1.15,2013-09-09 20:35:00,
2013-09-09 15:40:00,95.9,75.4,29.83,SE,145,1.0,1.0,52,0.00,,,0.00,Wunderground v.1.15,2013-09-09 20:40:00,
2013-09-09 15:45:00,95.8,76.5,29.83,South,169,1.0,1.0,54,0.00,,,0.00,Wunderground v.1.15,2013-09-09 20:45:00,
2013-09-09 15:50:00,95.8,75.3,29.83,West,266,0.0,0.0,52,0.00,,,0.00,Wunderground v.1.15,2013-09-09 20:50:00,
2013-09-09 15:55:00,95.8,74.8,29.83,ESE,119,0.0,0.0,51,0.00,,,0.00,Wunderground v.1.15,2013-09-09 20:55:00,
2013-09-09 16:00:00,95.7,75.3,29.83,ESE,116,1.0,1.0,52,0.00,,,0.00,Wunderground v.1.15,2013-09-09 21:00:00,
2013-09-09 16:05:00,95.5,75.6,29.83,SE,136,0.0,1.0,53,0.00,,,0.00,Wunderground v.1.15,2013-09-09 21:05:00,
2013-09-09 16:15:00,95.4,74.4,29.83,ESE,107,0.0,2.0,51,0.00,,,0.00,Wunderground v.1.15,2013-09-09 21:15:00,
2013-09-09 16:25:00,95.5,74.5,29.83,ESE,119,1.0,1.0,51,0.00,,,0.00,Wunderground v.1.15,2013-09-09 21:25:00,
2013-09-09 16:30:00,95.5,74.5,29.83,East,79,1.0,1.0,51,0.00,,,0.00,Wunderground v.1.15,2013-09-09 21:30:00,
2013-09-09 16:35:00,95.6,74.6,29.83,WSW,258,1.0,1.0,51,0.00,,,0.00,Wunderground v.1.15,2013-09-09 21:35:00,
2013-09-09 16:45:00,95.7,73.5,29.83,ESE,109,1.0,2.0,49,0.00,,,0.00,Wunderground v.1.15,2013-09-09 21:45:00,
2013-09-09 16:50:00,95.8,73.6,29.83,ESE,103,1.0,1.0,49,0.00,,,0.00,Wunderground v.1.15,2013-09-09 21:50:00,
2013-09-09 16:55:00,95.8,73.0,29.83,East,94,1.0,1.0,48,0.00,,,0.00,Wunderground v.1.15,2013-09-09 21:55:00,
2013-09-09 17:00:00,95.7,72.9,29.83,ESE,114,1.0,1.0,48,0.00,,,0.00,Wunderground v.1.15,2013-09-09 22:00:00,
2013-09-09 17:05:00,95.6,72.8,29.83,SSE,167,1.0,1.0,48,0.00,,,0.00,Wunderground v.1.15,2013-09-09 22:05:00,
2013-09-09 17:15:00,95.3,73.1,29.83,ESE,110,0.0,1.0,49,0.00,,,0.00,Wunderground v.1.15,2013-09-09 22:15:00,
2013-09-09 17:20:00,95.3,73.1,29.83,NE,51,0.0,0.0,49,0.00,,,0.00,Wunderground v.1.15,2013-09-09 22:20:00,
2013-09-09 17:30:00,95.3,72.5,29.83,East,89,0.0,0.0,48,0.00,,,0.00,Wunderground v.1.15,2013-09-09 22:30:00,
2013-09-09 17:35:00,95.3,73.1,29.83,SE,126,0.0,0.0,49,0.00,,,0.00,Wunderground v.1.15,2013-09-09 22:35:00,
2013-09-09 17:40:00,95.1,72.3,29.83,ESE,111,0.0,0.0,48,0.00,,,0.00,Wunderground v.1.15,2013-09-09 22:40:00,
2013-09-09 17:45:00,94.9,72.1,29.83,East,80,0.0,1.0,48,0.00,,,0.00,Wunderground v.1.15,2013-09-09 22:45:00,
2013-09-09 17:50:00,94.8,72.7,29.83,ESE,119,0.0,0.0,49,0.00,,,0.00,Wunderground v.1.15,2013-09-09 22:50:00,
2013-09-09 18:00:00,94.6,72.5,29.84,ESE,118,0.0,0.0,49,0.00,,,0.00,Wunderground v.1.15,2013-09-09 23:00:00,
2013-09-09 18:05:00,94.3,72.8,29.83,ESE,118,0.0,0.0,50,0.00,,,0.00,Wunderground v.1.15,2013-09-09 23:05:00,
2013-09-09 18:15:00,93.3,73.0,29.83,ESE,118,0.0,0.0,52,0.00,,,0.00,Wunderground v.1.15,2013-09-09 23:15:00,
2013-09-09 18:20:00,92.7,73.1,29.84,ESE,118,0.0,0.0,53,0.00,,,0.00,Wunderground v.1.15,2013-09-09 23:20:00,
2013-09-09 18:25:00,92.2,73.2,29.84,ESE,118,0.0,0.0,54,0.00,,,0.00,Wunderground v.1.15,2013-09-09 23:25:00,
2013-09-09 18:35:00,90.8,74.0,29.84,ESE,118,0.0,0.0,58,0.00,,,0.00,Wunderground v.1.15,2013-09-09 23:35:00,
2013-09-09 18:40:00,90.0,73.2,29.84,ESE,118,0.0,0.0,58,0.00,,,0.00,Wunderground v.1.15,2013-09-09 23:40:00,
2013-09-09 18:45:00,89.3,73.6,29.84,ESE,118,0.0,0.0,60,0.00,,,0.00,Wunderground v.1.15,2013-09-09 23:45:00,
2013-09-09 18:50:00,88.7,74.0,29.84,ESE,118,0.0,0.0,62,0.00,,,0.00,Wunderground v.1.15,2013-09-09 23:50:00,
2013-09-09 18:55:00,87.9,72.8,29.83,ESE,118,0.0,0.0,61,0.00,,,0.00,Wunderground v.1.15,2013-09-09 23:55:00,
2013-09-09 19:00:00,87.5,73.3,29.84,ESE,118,0.0,0.0,63,0.00,,,0.00,Wunderground v.1.15,2013-09-10 00:00:00,
2013-09-09 19:05:00,87.2,73.1,29.84,ESE,118,0.0,0.0,63,0.00,,,0.00,Wunderground v.1.15,2013-09-10 00:05:00,
2013-09-09 19:15:00,86.6,73.9,29.84,ESE,118,0.0,0.0,66,0.00,,,0.00,Wunderground v.1.15,2013-09-10 00:15:00,
2013-09-09 19:20:00,86.0,73.8,29.84,ESE,118,0.0,0.0,67,0.00,,,0.00,Wunderground v.1.15,2013-09-10 00:20:00,
2013-09-09 19:25:00,85.5,73.3,29.84,ESE,118,0.0,0.0,67,0.00,,,0.00,Wunderground v.1.15,2013-09-10 00:25:00,
2013-09-09 19:30:00,84.9,73.6,29.84,ESE,118,0.0,0.0,69,0.00,,,0.00,Wunderground v.1.15,2013-09-10 00:30:00,
2013-09-09 19:40:00,83.9,72.6,29.84,ESE,118,0.0,0.0,69,0.00,,,0.00,Wunderground v.1.15,2013-09-10 00:40:00,
2013-09-09 19:50:00,83.6,72.8,29.84,ESE,118,0.0,0.0,70,0.00,,,0.00,Wunderground v.1.15,2013-09-10 00:50:00,
2013-09-09 20:00:00,83.6,72.8,29.85,ESE,118,0.0,0.0,70,0.00,,,0.00,Wunderground v.1.15,2013-09-10 01:00:00,
2013-09-09 20:05:00,83.7,72.4,29.85,ESE,118,0.0,0.0,69,0.00,,,0.00,Wunderground v.1.15,2013-09-10 01:05:00,
2013-09-09 20:15:00,84.0,72.7,29.85,ESE,118,0.0,0.0,69,0.00,,,0.00,Wunderground v.1.15,2013-09-10 01:15:00,
2013-09-09 20:20:00,83.9,72.6,29.85,ESE,118,0.0,0.0,69,0.00,,,0.00,Wunderground v.1.15,2013-09-10 01:20:00,
2013-09-09 20:30:00,83.7,72.9,29.86,ESE,118,0.0,0.0,70,0.00,,,0.00,Wunderground v.1.15,2013-09-10 01:30:00,
2013-09-09 20:35:00,83.7,72.9,29.86,ESE,118,0.0,0.0,70,0.00,,,0.00,Wunderground v.1.15,2013-09-10 01:35:00,
2013-09-09 20:40:00,83.6,72.8,29.85,ESE,123,0.0,0.0,70,0.00,,,0.00,Wunderground v.1.15,2013-09-10 01:40:00,
2013-09-09 20:45:00,83.6,72.8,29.85,SE,124,0.0,0.0,70,0.00,,,0.00,Wunderground v.1.15,2013-09-10 01:45:00,
2013-09-09 20:55:00,83.5,73.1,29.86,ESE,123,0.0,0.0,71,0.00,,,0.00,Wunderground v.1.15,2013-09-10 01:55:00,
2013-09-09 21:00:00,83.4,73.0,29.86,SE,124,0.0,0.0,71,0.00,,,0.00,Wunderground v.1.15,2013-09-10 02:00:00,
2013-09-09 21:05:00,83.3,72.9,29.86,ESE,123,0.0,0.0,71,0.00,,,0.00,Wunderground v.1.15,2013-09-10 02:05:00,
2013-09-09 21:15:00,83.2,72.8,29.87,SSE,161,0.0,0.0,71,0.00,,,0.00,Wunderground v.1.15,2013-09-10 02:15:00,
2013-09-09 21:25:00,83.0,73.0,29.87,SSE,161,0.0,0.0,72,0.00,,,0.00,Wunderground v.1.15,2013-09-10 02:25:00,
2013-09-09 21:30:00,82.8,72.8,29.87,SSE,161,0.0,0.0,72,0.00,,,0.00,Wunderground v.1.15,2013-09-10 02:30:00,
2013-09-09 21:35:00,82.5,72.6,29.87,SSE,161,0.0,0.0,72,0.00,,,0.00,Wunderground v.1.15,2013-09-10 02:35:00,
2013-09-09 21:40:00,82.3,72.8,29.87,SSE,161,0.0,0.0,73,0.00,,,0.00,Wunderground v.1.15,2013-09-10 02:40:00,
2013-09-09 21:50:00,81.8,72.3,29.88,SSE,161,0.0,0.0,73,0.00,,,0.00,Wunderground v.1.15,2013-09-10 02:50:00,
2013-09-09 21:55:00,81.6,72.5,29.87,SSE,161,0.0,0.0,74,0.00,,,0.00,Wunderground v.1.15,2013-09-10 02:55:00,
2013-09-09 22:05:00,81.2,71.7,29.88,SSE,161,0.0,0.0,73,0.00,,,0.00,Wunderground v.1.15,2013-09-10 03:05:00,
2013-09-09 22:15:00,81.2,71.7,29.88,SSE,161,0.0,0.0,73,0.00,,,0.00,Wunderground v.1.15,2013-09-10 03:15:00,
2013-09-09 22:20:00,81.1,71.6,29.88,SSE,161,0.0,0.0,73,0.00,,,0.00,Wunderground v.1.15,2013-09-10 03:20:00,
2013-09-09 22:25:00,80.9,71.4,29.88,SSE,161,0.0,0.0,73,0.00,,,0.00,Wunderground v.1.15,2013-09-10 03:25:00,
2013-09-09 22:35:00,81.0,70.7,29.89,SSE,161,0.0,0.0,71,0.00,,,0.00,Wunderground v.1.15,2013-09-10 03:35:00,
2013-09-09 22:40:00,81.0,69.9,29.89,SSE,161,0.0,0.0,69,0.00,,,0.00,Wunderground v.1.15,2013-09-10 03:40:00,
2013-09-09 22:45:00,81.1,69.5,29.89,SSE,161,0.0,0.0,68,0.00,,,0.00,Wunderground v.1.15,2013-09-10 03:45:00,
2013-09-09 22:50:00,81.3,69.3,29.89,SSE,161,0.0,0.0,67,0.00,,,0.00,Wunderground v.1.15,2013-09-10 03:50:00,
2013-09-09 23:00:00,81.4,68.9,29.89,SSE,161,0.0,0.0,66,0.00,,,0.00,Wunderground v.1.15,2013-09-10 04:00:00,
2013-09-09 23:05:00,81.5,69.0,29.89,SSE,161,0.0,0.0,66,0.00,,,0.00,Wunderground v.1.15,2013-09-10 04:05:00,
2013-09-09 23:10:00,81.5,69.0,29.89,SSE,161,0.0,0.0,66,0.00,,,0.00,Wunderground v.1.15,2013-09-10 04:10:00,
2013-09-09 23:15:00,81.3,68.9,29.89,SSE,161,0.0,0.0,66,0.00,,,0.00,Wunderground v.1.15,2013-09-10 04:15:00,
2013-09-09 23:20:00,81.1,68.2,29.89,SSE,161,0.0,0.0,65,0.00,,,0.00,Wunderground v.1.15,2013-09-10 04:20:00,
2013-09-09 23:25:00,81.0,68.6,29.89,SSE,161,0.0,0.0,66,0.00,,,0.00,Wunderground v.1.15,2013-09-10 04:25:00,
2013-09-09 23:35:00,80.7,68.3,29.89,SSE,161,0.0,0.0,66,0.00,,,0.00,Wunderground v.1.15,2013-09-10 04:35:00,
2013-09-09 23:40:00,80.5,68.5,29.89,SSE,161,0.0,0.0,67,0.00,,,0.00,Wunderground v.1.15,2013-09-10 04:40:00,
2013-09-09 23:45:00,80.3,68.3,29.90,SSE,161,0.0,0.0,67,0.00,,,0.00,Wunderground v.1.15,2013-09-10 04:45:00,
2013-09-09 23:50:00,80.0,68.1,29.90,SSE,161,0.0,0.0,67,0.00,,,0.00,Wunderground v.1.15,2013-09-10 04:50:00,